Regional Weather Roundup
Issued by NWS

Home | Current Version | Previous Version | Text Only | Print | Product List | Glossary On
Versions: 1 2 3 4 5 6 7 8 9 10 11 12 13 14 15 16 17 18 19 20 21 22 23 24 25 26 27 28 29 30 31 32 33 34 35 36 37 38 39 40 41 42 43 44 45 46 47 48 49 50
000
ASUS43 KTOP 181008
RWRKS

WEATHER ROUNDUP FOR KANSAS
NATIONAL WEATHER SERVICE GOODLAND KS
400 AM CST SAT NOV 18 2017

NOTE:  "FAIR" INDICATES FEW OR NO CLOUDS BELOW 12,000 FEET WITH NO
SIGNIFICANT WEATHER AND/OR OBSTRUCTIONS TO VISIBILITY.

KSZ001>006-013>018-027>032-041>047-181100-
NORTHWEST KANSAS

CITY           SKY/WX    TMP DP  RH WIND       PRES   REMARKS
GOODLAND       CLOUDY    39  34  82 NW29G44   29.91R WCI  27
HAYS           LGT RAIN  44  40  85 N23G31    29.78R
HILL CITY      LGT RAIN  42  40  92 N23G31    29.84R
RUSSELL        CLOUDY    44  42  93 NW23G35   29.75R
$$

KSZ061>065-074>080-084>089-181100-
SOUTHWEST KANSAS

CITY           SKY/WX    TMP DP  RH WIND       PRES   REMARKS
DODGE CITY     CLOUDY    46  36  68 N14G26    29.79R
ELKHART        LGT RAIN  45  39  79 NW25G35   29.94R
GARDEN CITY    LGT RAIN  44  39  82 NW22G30   29.86R
GREAT BEND     CLOUDY    45  37  73 NW16      29.75R
LIBERAL        LGT RAIN  46  37  71 NW26G33   29.88R
PRATT          MOCLDY    44  35  70 N24G31    29.71R
$$

KSZ066>073-081>083-090>101-181100-
SOUTHEAST KANSAS

CITY           SKY/WX    TMP DP  RH WIND       PRES   REMARKS
CHANUTE        PTCLDY    57  50  77 W20G28    29.43R
COFFEYVILLE    CLOUDY    71  51  49 W15       29.42R
HUTCHINSON     CLOUDY    47  41  80 N24G31    29.65R
MEDICINE LODGE   N/A     46  37  71 N22G38    29.66R
NEWTON         CLOUDY    46  40  79 NW24G35   29.60R
PARSONS        CLOUDY    64  47  53 W15G23    29.45R
WICHITA INTL   CLOUDY    50  41  71 NW23G44   29.60R
WICHITA JABRA  CLOUDY    49  42  77 NW25G36   29.58R
WICHITA MCCONL CLOUDY    49  41  72 N18G36    29.58R
WINFIELD       CLOUDY    51  44  77 NW26G32   29.56R
$$

KSZ007>012-019>026-033>040-048>060-102>105-181100-
NORTHEAST KANSAS

CITY           SKY/WX    TMP DP  RH WIND       PRES   REMARKS
CONCORDIA      RAIN      42  41  96 N21G28    29.71R
EMPORIA        CLOUDY    51  49  92 NW24G39   29.50R FOG
LAWRENCE       CLOUDY    56  54  93 NW24G31   29.44R FOG
MANHATTAN      LGT RAIN  48  44  86 N13G25    29.62R
MARYSVILLE     CLOUDY    45  41  87 N20G32    29.65R
OLATHE IND     CLOUDY    56  56 100 N16       29.41R FOG
OLATHE EXE     CLOUDY    57  57 100 N15       29.39R FOG
SALINA         CLOUDY    48  40  73 N26G38    29.67R
TOPEKA BILLARD CLOUDY    52  52 100 N21G32    29.50R
TOPEKA FORBES  CLOUDY    54  52  93 N24G30    29.49R
$$




USA.gov is the U.S. government's official web portal to all federal, state and local government web resources and services.